Wind_Speed
27 27 26 24 21 21 23 23 23 23 23 24 25 26 27 28 27 26 25 25 26 25 25 25 27 28 28 29 29 28 27 27 29 30 30 30 30 29 27 27 27 27 27 27 26 25 25 25 25 24 25 25 26 26 25 25 23 23 25 26 27 27 27 26 26 27 27 27 28 27 29 29 28 32 36 39 40 39 39 43 44 44 42 39 38
28 26 24 22 21 21 23 23 23 23 24 25 25 26 27 28 27 26 25 25 26 26 25 24 25 27 28 28 28 28 28 28 28 29 30 31 30 30 29 28 28 28 28 28 27 27 27 26 26 25 25 26 26 25 23 23 24 25 26 26 26 27 27 26 27 28 27 27 29 29 29 29 29 30 35 38 40 39 37 39 43 44 44 42 40
28 25 26 24 23 24 24 23 23 24 25 25 25 26 27 27 28 26 24 24 24 25 25 24 23 24 25 26 27 28 28 29 29 29 30 31 31 31 31 30 30 30 29 29 29 29 28 28 27 26 26 26 27 26 24 25 25 25 25 25 25 26 27 29 30 29 28 27 28 29 28 28 27 27 32 37 40 40 38 37 39 42 44 44 43
26 24 25 25 25 24 24 23 23 23 25 25 26 27 28 29 29 28 25 24 24 25 26 25 23 23 24 25 25 26 27 28 30 30 31 32 32 32 32 31 31 31 30 30 30 29 29 29 28 27 27 27 27 27 26 26 26 25 25 26 26 26 28 31 31 30 29 27 27 27 26 25 22 20 24 31 36 38 39 40 41 42 43 44 44
27 24 23 23 24 22 23 23 23 24 24 25 27 28 30 31 31 30 28 26 25 25 26 26 24 24 25 25 25 25 26 27 28 30 31 31 32 32 32 31 31 30 30 30 30 29 29 29 28 28 28 28 28 28 27 27 27 27 27 28 27 28 29 31 31 30 31 29 28 28 27 25 22 18 18 22 29 35 39 42 42 40 41 44 44
28 26 23 22 23 22 23 24 24 25 25 27 28 30 32 32 33 33 31 29 28 26 26 27 26 26 26 26 26 26 26 26 27 28 29 29 30 30 30 30 30 30 29 29 29 29 29 29 29 29 28 29 29 29 28 28 28 28 28 28 28 28 29 30 29 29 31 31 30 30 29 27 25 22 19 18 22 28 35 40 41 40 41 44 45
28 27 25 22 22 24 23 24 26 27 28 30 30 31 33 33 34 35 34 32 30 28 27 27 26 27 27 26 26 26 26 26 26 27 28 29 29 30 30 29 29 28 28 28 28 28 28 29 29 29 29 29 29 29 29 29 28 28 28 28 29 28 29 29 28 28 30 31 30 30 29 28 26 23 19 17 18 20 25 33 38 40 42 44 45
28 27 27 24 24 26 25 25 28 29 30 32 32 33 34 34 36 37 36 34 31 29 29 29 27 26 28 27 26 27 27 26 26 27 27 28 28 29 29 28 28 27 27 26 26 26 26 27 28 28 29 29 28 29 28 28 28 27 27 28 28 28 28 29 29 29 30 30 30 30 29 28 27 23 19 16 17 16 17 21 27 34 39 42 44
28 28 29 27 27 29 28 28 30 31 32 32 33 34 35 36 36 37 37 35 32 30 30 29 27 27 27 26 26 27 27 26 26 27 27 27 27 28 27 26 26 25 25 25 24 24 24 25 26 26 27 28 27 28 28 28 28 27 27 27 27 27 26 28 28 29 29 30 30 30 30 30 28 26 23 20 19 19 19 20 21 25 31 37 42
31 31 31 30 30 30 30 31 31 32 32 33 33 35 37 37 35 36 38 36 31 29 30 29 28 27 26 25 25 26 26 26 26 26 27 27 26 26 25 25 24 24 23 23 23 23 23 23 23 24 25 26 26 27 27 27 28 27 26 26 27 26 25 26 27 28 28 28 29 30 30 31 30 30 29 28 28 26 25 24 24 23 25 30 37
32 33 33 32 32 32 32 32 32 33 34 35 35 36 38 39 37 37 38 35 31 29 30 29 28 27 25 24 24 24 25 25 25 25 25 25 25 24 24 23 22 22 22 22 22 22 22 22 22 22 23 24 25 25 26 26 26 26 25 25 26 25 24 25 25 26 27 27 27 28 29 30 30 30 31 32 31 29 26 25 25 25 25 26 30
33 34 33 33 33 33 33 34 35 36 36 37 37 37 38 39 39 39 37 33 32 30 29 28 27 25 24 24 23 23 24 23 23 23 23 23 23 22 21 21 20 20 20 20 20 20 20 20 20 21 22 22 23 23 24 25 25 24 24 23 24 24 24 23 24 25 25 26 26 26 27 28 29 29 30 30 30 28 26 25 24 24 25 25 25
34 34 34 34 34 34 35 36 38 38 37 38 39 38 39 40 41 40 35 30 28 27 27 26 25 23 23 23 22 22 22 22 22 21 21 21 20 20 19 19 19 18 18 19 19 19 18 18 19 20 21 21 22 22 22 23 23 23 22 22 22 23 23 22 23 23 24 24 24 24 25 25 26 27 27 27 26 25 24 23 23 22 23 23 22
32 33 33 33 33 34 35 37 38 37 37 38 39 39 40 40 40 38 32 26 25 25 26 26 24 23 23 22 21 21 21 21 21 21 20 20 19 19 18 18 18 17 17 18 18 18 17 17 17 17 19 20 21 21 21 22 22 22 21 21 21 21 22 21 22 22 22 23 23 23 23 23 23 24 24 24 23 22 22 22 22 21 20 22 21
28 29 30 30 30 32 34 35 35 35 34 36 37 38 39 38 37 35 29 25 24 25 27 27 26 25 24 23 21 20 21 21 21 21 21 20 19 19 19 18 18 18 18 18 18 17 16 16 16 16 17 18 19 20 20 21 21 21 21 20 19 20 20 21 21 21 21 21 21 21 21 21 21 21 22 22 22 21 20 20 20 19 19 20 20
25 25 25 26 27 29 31 31 30 29 29 30 31 32 33 33 33 32 28 26 25 25 26 26 26 25 23 22 21 19 19 20 20 20 20 20 19 19 19 18 18 18 18 18 17 17 16 15 15 15 16 16 17 18 18 18 19 19 19 19 18 18 19 19 20 20 20 20 20 19 19 20 20 20 20 20 21 20 19 18 18 18 18 19 19
23 23 24 24 25 27 28 27 24 23 23 23 24 25 26 28 30 30 28 26 25 25 26 25 25 24 23 22 21 20 19 19 19 19 19 19 18 18 18 17 17 17 17 17 17 17 16 15 15 15 15 16 17 17 17 17 17 17 17 17 17 17 18 18 19 19 20 20 20 19 19 19 19 19 19 19 19 18 17 17 17 17 17 18 18
23 23 23 24 25 25 26 24 22 21 21 20 21 21 24 27 28 29 27 25 24 25 24 24 25 24 23 23 23 22 21 21 20 19 19 19 18 18 18 19 18 18 17 17 17 18 18 17 16 16 16 16 17 17 18 18 17 17 17 16 16 17 17 18 19 19 19 19 19 19 20 20 19 19 19 19 18 18 17 16 16 16 17 18 18
23 23 23 24 24 24 25 26 25 24 23 22 23 24 26 27 27 27 26 25 25 24 24 25 25 24 24 24 24 24 24 23 22 21 20 20 20 20 21 21 20 20 19 18 18 18 19 18 18 18 18 18 18 18 19 19 19 18 18 18 17 17 17 17 18 19 19 19 19 19 20 20 20 20 20 20 20 19 19 18 17 17 18 18 19
24 23 24 25 26 25 26 27 28 29 29 28 28 28 28 27 26 27 27 26 26 24 25 26 26 25 26 26 26 26 25 25 25 24 23 23 23 23 22 22 21 20 19 18 18 18 18 18 18 18 19 19 20 20 20 20 20 20 20 20 20 20 20 19 19 19 19 20 20 20 20 20 21 21 21 22 22 21 21 21 21 20 20 20 20
25 24 23 25 27 27 27 28 28 31 33 33 34 33 31 29 29 29 28 28 28 28 28 29 28 27 28 27 26 26 25 25 25 24 24 24 24 24 23 23 23 22 21 20 19 18 18 19 19 19 19 19 19 20 20 21 21 21 21 21 22 22 23 23 22 22 22 22 22 22 22 22 22 22 22 23 23 24 24 23 23 23 23 23 23
27 26 25 25 27 28 29 30 30 31 32 33 34 34 33 32 31 32 32 32 33 34 34 32 30 30 29 28 28 27 26 25 24 23 23 24 24 24 24 25 25 26 26 25 24 23 22 21 21 21 21 21 21 20 21 22 22 22 22 22 22 23 24 24 24 24 24 25 25 25 25 25 25 25 25 24 25 25 25 25 26 26 25 25 25
29 29 28 27 28 29 30 31 33 33 33 31 31 31 33 34 35 35 35 36 38 38 38 36 34 34 32 30 30 28 27 26 27 27 26 25 26 26 27 27 27 28 29 29 29 28 27 25 23 23 24 24 24 24 24 25 25 26 26 25 25 26 26 26 26 25 25 26 26 27 27 28 28 28 28 28 27 27 27 28 28 28 28 28 28
32 32 32 30 30 31 32 32 33 34 34 33 32 31 32 34 36 36 36 38 41 41 40 39 37 36 34 33 32 31 30 29 29 31 31 29 30 30 30 30 30 30 31 31 32 31 29 28 26 24 25 25 25 26 26 26 27 27 27 27 28 28 28 28 28 27 27 27 27 28 28 29 29 29 29 29 30 30 30 30 30 30 30 31 31
34 35 36 35 34 34 34 35 35 34 33 34 34 34 34 34 35 36 37 38 41 43 42 40 39 38 37 35 34 33 33 32 31 34 35 33 33 33 32 32 33 32 31 30 30 30 29 29 28 27 26 26 26 26 27 27 27 28 28 28 28 29 29 30 30 29 29 29 29 29 30 30 30 30 30 30 30 30 31 31 31 32 32 32 33
36 37 38 39 39 38 38 38 38 37 36 35 35 36 37 38 38 39 39 39 39 41 42 40 39 39 37 37 37 36 35 34 34 34 36 35 35 34 34 34 34 33 32 30 29 29 28 27 28 28 27 28 29 29 29 29 30 30 30 29 29 29 29 30 31 31 31 31 31 31 31 32 32 32 32 32 31 31 31 31 32 32 33 33 33
38 38 39 41 42 42 43 42 41 41 40 39 39 38 38 39 41 42 43 42 41 41 43 41 39 38 38 38 39 38 38 39 39 39 41 41 38 35 35 37 36 34 34 34 33 32 30 29 30 30 29 30 31 32 32 32 33 33 33 32 31 31 31 31 32 33 33 33 33 33 33 34 34 34 34 34 34 34 33 33 33 33 33 33 34
42 41 40 40 41 42 44 45 45 45 44 43 43 42 42 41 42 43 44 45 45 45 46 46 44 44 43 40 38 37 39 42 44 45 46 44 40 38 39 41 38 35 35 37 38 37 34 32 33 33 34 34 33 34 35 35 35 35 36 36 36 35 34 34 35 35 35 35 35 35 35 36 36 37 37 37 37 37 36 36 35 35 34 34 35
40 42 42 39 39 40 42 44 46 46 47 46 46 45 45 44 44 44 45 46 47 48 48 48 48 48 48 46 42 39 40 42 43 44 44 43 42 43 44 43 41 38 37 38 40 39 37 36 36 37 38 37 36 36 37 37 37 36 37 37 37 37 37 36 36 37 37 37 37 37 37 37 38 39 39 39 39 39 39 39 38 38 37 37 37
33 35 37 37 38 38 40 41 43 45 46 47 47 47 47 46 46 46 45 46 48 49 50 51 51 50 49 49 49 47 46 45 45 45 45 43 43 43 42 40 39 38 39 40 41 41 41 42 41 41 41 40 38 38 39 39 39 40 39 37 36 38 39 39 39 39 38 37 38 39 39 39 40 41 42 42 42 42 41 41 41 40 40 39 39
34 32 34 37 38 39 40 40 41 43 44 45 46 46 46 46 46 46 46 46 47 49 50 52 53 52 51 51 50 51 51 51 51 51 51 49 48 47 45 43 40 38 38 40 42 43 44 45 46 45 45 44 42 40 41 42 43 44 43 41 40 40 40 40 41 42 41 39 39 40 41 40 41 42 44 45 45 44 44 43 43 43 43 43 42
42 41 40 40 39 39 40 41 41 42 43 43 44 45 45 46 46 46 46 46 47 48 49 51 52 53 53 52 51 51 51 51 52 54 54 54 53 54 54 52 49 45 43 42 43 45 45 47 48 47 48 48 46 43 43 44 46 46 45 45 45 44 42 42 42 43 44 43 43 43 43 42 42 42 44 45 46 46 46 45 45 45 45 45 45
46 46 44 43 42 42 42 42 42 43 43 43 44 45 45 46 47 47 47 47 48 48 49 50 51 52 53 53 53 52 51 50 50 51 52 52 52 53 54 53 52 50 48 47 47 48 49 50 51 50 51 51 48 48 48 48 48 48 47 48 49 48 46 47 47 47 47 47 47 47 47 47 46 45 45 45 46 47 48 47 47 46 46 46 46
46 45 46 47 46 44 43 42 43 44 43 44 45 45 46 46 47 47 48 48 48 49 49 50 52 53 54 54 54 54 54 53 52 52 53 52 53 53 53 53 53 52 51 50 50 50 52 53 53 54 56 54 52 52 53 53 52 52 51 52 53 52 50 50 50 50 49 49 50 50 50 51 51 50 49 48 47 48 48 49 49 49 49 48 47
49 49 50 50 48 46 45 44 44 44 44 45 46 45 46 46 47 47 47 48 48 49 49 50 52 53 54 55 56 56 56 57 57 56 56 56 57 56 56 56 55 55 54 53 53 53 53 54 55 56 58 57 55 55 55 55 55 55 54 54 55 55 53 53 52 52 51 51 51 51 52 52 52 52 51 50 49 49 49 49 50 50 51 50 50
52 52 52 51 49 48 47 46 46 46 46 46 46 46 47 47 47 47 47 48 49 49 50 50 51 52 53 54 55 55 56 56 57 58 58 58 58 58 58 57 56 56 56 55 55 55 55 55 55 57 59 57 55 55 55 56 57 56 55 55 55 55 55 55 54 54 53 52 53 53 53 53 53 53 53 52 51 51 51 51 51 51 51 51 51
50 52 52 50 49 49 48 48 48 48 48 48 48 48 48 48 49 49 49 49 49 50 51 51 51 52 52 53 53 54 54 55 56 56 56 57 57 57 57 57 56 56 55 54 54 53 54 56 56 57 58 56 54 54 56 56 56 55 55 54 54 54 55 55 54 54 53 54 54 54 53 53 53 53 54 53 52 52 53 53 53 53 52 52 51
51 51 51 49 49 50 49 49 49 49 50 50 50 50 50 50 50 50 50 51 51 52 52 53 53 53 52 53 53 53 54 54 55 55 56 55 55 55 55 55 54 54 53 53 53 52 53 55 55 56 56 54 53 55 56 55 54 54 53 54 54 55 55 54 54 54 54 55 55 54 54 54 54 54 55 54 54 54 54 55 55 55 54 54 53
50 49 49 49 49 50 50 50 50 51 51 51 51 51 51 51 51 51 51 52 52 53 53 54 54 53 53 53 53 53 53 54 54 54 55 55 55 54 54 53 52 52 52 52 52 51 52 54 54 54 54 54 55 56 55 54 53 53 53 53 54 55 55 54 54 54 55 55 55 55 55 55 55 56 56 56 56 56 57 57 58 58 57 56 55
48 48 48 48 47 48 48 48 49 49 50 51 51 52 52 51 51 51 51 52 52 52 53 53 54 53 53 53 52 52 52 52 52 53 53 53 54 54 53 53 52 51 52 52 52 53 53 53 52 52 53 53 54 54 54 53 53 52 52 53 53 54 54 54 54 54 54 54 55 55 55 54 54 55 55 55 55 56 57 58 59 59 59 59 57
48 49 48 47 46 47 47 47 48 49 50 50 51 51 51 51 51 50 50 50 50 50 51 51 52 52 52 52 52 51 51 51 51 51 51 52 52 53 53 53 52 52 52 52 52 53 53 52 51 51 52 52 52 52 52 52 52 51 52 52 52 52 52 52 52 52 52 52 53 54 54 54 54 54 54 53 54 54 55 56 58 59 59 60 59
49 49 49 48 48 48 47 48 49 49 50 51 51 52 51 51 51 50 50 50 49 49 50 50 51 51 51 51 51 50 50 50 50 50 51 51 52 52 52 53 52 52 52 51 52 53 53 52 51 52 52 50 50 50 50 49 49 50 51 51 50 50 50 50 50 50 50 50 51 52 53 53 53 54 54 54 54 54 54 55 56 57 58 59 59
50 50 50 50 49 49 49 49 50 50 51 52 52 52 52 51 51 50 50 49 49 49 49 49 50 50 50 50 50 50 50 50 50 50 51 51 52 51 52 52 53 52 51 51 52 53 52 52 52 52 51 49 48 48 48 48 48 48 49 49 48 49 48 48 48 48 48 49 50 51 52 52 53 53 53 53 52 52 53 53 54 56 57 58 58
51 51 51 50 50 50 50 50 50 51 52 52 52 52 51 51 50 50 50 49 49 49 49 48 49 49 49 49 49 49 50 49 49 49 50 51 51 51 51 51 52 52 51 52 53 53 52 52 51 51 50 48 47 48 47 46 45 45 45 45 46 47 47 46 46 46 47 48 49 50 51 51 50 50 50 51 52 53 54 55 56 57 57 58 59
51 51 51 51 51 50 51 51 51 52 52 52 52 52 52 52 51 51 50 50 49 49 48 48 48 48 48 47 47 48 48 48 48 48 49 50 51 50 49 50 51 51 51 52 52 52 51 50 50 50 50 48 47 47 46 44 43 43 43 43 44 44 44 44 45 46 47 48 48 49 49 48 49 50 52 54 56 58 59 59 59 59 59 59 60
52 52 52 52 52 52 52 52 52 52 53 53 53 53 53 52 52 51 51 50 49 48 47 47 47 47 47 47 47 47 47 48 48 47 48 50 50 48 47 48 50 50 50 50 51 50 49 50 50 50 49 47 46 46 45 44 43 42 41 42 42 41 42 43 45 45 46 46 46 47 47 48 50 53 56 58 59 59 60 59 59 59 59 58 59
53 54 54 53 53 53 53 52 52 52 52 53 54 54 53 53 52 52 51 50 49 49 48 47 47 46 45 46 46 47 47 48 48 48 48 49 48 46 47 48 49 49 49 49 49 49 49 50 50 50 49 48 47 46 45 44 42 40 39 40 41 42 43 43 43 43 44 44 45 46 48 50 53 55 57 57 57 57 57 56 56 56 55 55 55
54 55 55 54 54 54 54 54 54 54 54 55 55 54 54 54 53 52 52 51 51 50 50 49 48 47 46 47 48 48 48 48 48 48 48 48 47 47 48 49 49 49 49 49 49 50 50 50 49 49 48 47 46 44 42 41 39 38 38 41 42 42 42 41 42 42 43 44 46 47 50 52 53 54 54 54 54 54 53 53 53 53 53 53 53
56 56 56 56 56 56 56 56 55 56 56 56 55 55 54 54 53 53 52 52 52 51 51 50 49 47 47 48 49 49 49 49 49 48 48 47 48 48 48 49 50 50 49 49 48 48 47 46 45 44 43 42 40 38 36 36 38 38 40 41 40 39 39 40 41 42 43 45 47 48 50 50 51 51 52 51 51 50 50 50 50 50 50 50 51
58 57 57 57 57 57 57 57 56 57 57 57 56 55 55 55 54 53 53 53 53 52 51 51 50 49 49 49 49 49 49 49 50 49 48 47 47 47 47 47 47 47 45 44 43 42 41 40 39 37 34 33 32 31 31 34 36 37 37 37 36 36 37 39 41 42 43 44 45 46 47 48 48 48 48 48 47 47 47 47 47 47 47 47 48
59 59 59 59 58 58 58 58 58 58 58 58 57 56 55 55 55 54 54 54 53 52 52 50 50 49 49 49 50 49 48 48 48 47 45 43 43 43 43 42 41 40 38 37 36 35 34 33 31 29 27 27 27 27 30 34 34 33 32 32 32 34 36 38 39 40 41 42 43 44 44 45 45 45 45 46 46 46 46 46 46 46 46 46 46
Wind_Direction
262 265 267 262 264 281 285 280 280 278 277 277 277 279 279 280 280 280 280 278 277 276 274 273 273 273 272 270 269 268 263 257 253 251 252 254 257 259 260 262 266 267 268 268 269 270 268 268 268 267 267 267 267 267 266 263 264 270 269 266 265 264 262 258 257 259 259 257 258 260 259 257 256 252 243 238 238 239 238 235 233 232 233 234 235
264 266 269 266 269 282 279 276 277 275 276 277 278 280 281 282 281 280 281 280 280 279 276 274 271 271 271 270 269 269 267 263 258 256 256 258 260 263 265 267 268 269 269 268 269 269 268 267 267 267 267 267 269 269 266 263 264 266 263 264 265 262 258 256 261 264 261 259 258 258 259 258 257 251 245 242 241 242 242 236 235 235 233 233 235
265 268 274 272 273 277 274 275 276 275 277 278 281 282 283 284 282 281 282 283 284 283 281 278 273 271 271 270 269 268 267 266 264 262 262 262 264 266 267 268 268 268 268 267 267 267 267 267 266 267 266 267 269 271 270 266 265 262 259 261 262 258 256 258 263 264 262 262 261 259 260 262 261 253 244 242 242 243 241 236 234 234 234 234 235
263 265 272 273 274 276 275 276 275 276 280 282 283 284 284 285 284 284 285 286 286 286 285 282 277 274 272 271 269 267 267 266 265 265 264 265 265 266 267 267 267 266 266 266 266 266 267 268 268 268 267 267 268 269 269 268 267 265 262 261 259 256 257 258 260 261 262 264 264 263 264 264 264 259 246 240 240 241 239 237 236 234 235 236 236
263 265 266 267 270 273 273 275 276 279 281 282 283 283 284 286 286 287 288 289 289 288 286 284 281 277 274 272 269 267 265 264 264 264 264 264 265 265 265 266 266 266 265 265 265 266 266 268 269 269 269 269 270 270 270 269 268 266 263 261 259 256 255 256 258 259 260 263 264 264 265 263 262 264 257 243 239 239 238 239 240 238 236 238 237
262 263 258 259 267 270 270 275 278 280 279 278 279 280 282 284 286 287 288 290 291 290 287 284 282 278 275 272 270 268 266 264 263 263 263 263 263 264 264 265 265 265 265 265 265 266 266 267 268 269 270 270 271 272 272 272 270 268 265 263 260 257 256 256 257 259 259 260 261 262 264 265 265 268 267 253 241 238 238 240 244 242 238 238 238
260 262 260 260 266 267 268 272 273 274 274 274 275 277 279 282 284 286 288 290 291 292 288 284 280 276 274 271 269 268 267 266 265 264 264 263 263 263 263 263 263 263 263 264 265 266 266 267 267 268 269 270 271 272 272 273 272 270 268 266 263 260 258 257 256 258 259 259 259 262 264 266 268 269 267 263 252 242 239 240 242 243 242 242 241
261 263 263 260 257 258 261 264 265 267 268 271 273 275 277 279 281 284 287 289 291 291 288 284 280 274 271 269 267 267 268 267 267 266 265 265 263 263 262 263 263 263 263 264 266 267 267 267 267 268 269 270 271 271 272 272 272 271 268 267 266 264 262 260 257 256 257 259 259 261 262 264 265 265 266 264 256 252 252 248 243 242 244 245 243
257 257 258 257 253 254 256 257 259 261 262 266 270 273 275 276 279 282 285 288 290 289 286 283 280 274 270 267 265 266 266 266 265 265 264 264 263 263 263 264 265 266 266 266 267 267 267 268 268 269 270 271 271 271 271 271 271 269 268 266 266 264 263 262 261 259 258 258 258 259 260 261 260 261 264 261 259 268 274 271 261 251 246 246 244
252 252 254 254 252 252 252 253 255 257 258 260 265 269 272 274 276 277 280 285 287 288 286 281 279 275 271 268 266 265 265 264 263 263 262 262 262 263 264 265 266 267 268 268 268 267 267 268 268 270 271 272 272 272 271 270 270 269 267 266 265 264 263 262 262 262 261 259 258 258 258 259 259 260 262 263 268 276 278 276 274 268 259 251 245
250 251 253 253 253 253 252 252 253 254 256 258 261 265 269 272 273 272 276 280 281 284 284 279 277 276 272 270 268 266 266 265 263 263 262 262 262 263 265 266 267 268 269 269 269 268 268 267 268 269 271 272 272 272 271 270 269 268 267 266 265 265 263 262 262 263 264 263 261 261 261 261 261 261 263 266 271 274 274 273 273 273 272 264 251
252 251 252 253 253 253 253 254 254 254 255 257 258 261 263 267 269 270 273 276 276 278 279 278 277 276 275 273 272 270 269 267 266 265 265 265 265 266 267 268 269 270 270 270 269 269 269 269 269 269 271 272 271 271 270 269 269 269 268 266 265 265 263 262 262 263 264 265 264 263 263 264 265 265 265 267 270 271 271 270 268 269 271 271 262
252 251 251 251 251 251 252 252 253 253 253 253 254 255 257 260 263 267 271 271 270 272 276 278 278 278 278 277 275 272 270 270 269 269 268 267 267 268 269 269 269 269 269 270 269 269 269 270 270 271 272 273 272 271 270 269 269 270 270 268 266 265 264 262 261 261 262 263 263 262 262 262 263 265 266 266 268 268 268 268 267 266 266 268 267
251 252 251 250 249 249 249 250 252 252 250 249 249 249 250 252 258 264 267 264 264 270 274 276 276 278 279 277 275 272 270 270 269 269 267 267 267 267 268 268 268 268 268 269 268 267 267 267 269 270 271 272 273 273 272 272 271 271 271 270 268 266 265 263 261 260 261 261 261 261 260 260 260 261 263 266 267 266 267 268 268 267 264 264 265
250 250 250 249 247 246 247 249 251 251 249 247 247 245 245 247 253 260 263 261 263 267 270 271 272 274 275 275 275 272 269 268 267 266 265 264 265 264 265 266 268 269 268 268 267 265 265 265 267 268 268 268 269 270 272 273 273 273 273 272 270 267 265 263 261 259 259 260 260 260 260 260 260 259 261 264 267 266 265 265 266 265 264 262 261
249 248 245 244 242 241 243 244 246 247 247 246 245 244 244 244 247 254 258 259 261 263 265 267 269 269 270 271 270 268 266 265 265 266 266 265 266 266 266 266 266 267 268 267 266 264 264 265 266 267 267 266 265 266 267 270 272 273 274 274 272 269 265 263 262 260 259 259 259 259 259 259 260 260 260 262 265 267 265 262 263 262 260 260 258
249 246 243 240 237 236 237 238 238 241 242 242 241 239 238 239 243 249 253 254 256 259 261 264 265 264 264 264 263 263 264 264 263 264 264 264 265 266 266 265 264 264 265 265 264 263 263 264 265 267 267 267 266 265 265 265 267 269 270 270 270 268 266 263 262 262 262 262 262 261 260 260 260 260 261 263 264 266 267 264 262 262 261 261 260
247 246 243 241 238 235 234 235 235 236 236 236 236 235 235 238 242 247 250 252 253 255 258 261 262 262 260 259 259 261 264 265 262 261 260 261 262 262 264 265 265 265 264 264 263 262 261 261 263 265 266 267 267 268 268 268 268 269 269 269 267 266 264 263 262 263 263 265 266 266 266 265 264 264 264 265 265 266 266 265 262 262 263 264 266
249 246 244 244 242 236 234 235 234 233 234 234 234 235 236 239 243 246 249 250 251 254 257 259 261 261 259 257 258 260 264 263 260 258 259 262 263 264 265 267 268 269 267 266 264 262 261 259 259 261 262 264 265 265 267 268 269 271 272 273 273 271 269 266 263 262 262 263 265 266 268 269 270 270 269 268 268 268 267 267 265 263 263 265 267
251 248 246 246 244 238 237 239 236 231 232 233 234 235 235 237 240 244 248 250 253 255 256 257 258 258 257 258 260 263 264 262 259 258 258 261 264 264 266 268 268 268 268 268 267 266 266 264 261 260 260 262 264 265 265 265 266 268 269 271 274 275 275 274 271 268 266 264 264 263 264 265 267 269 271 271 271 271 270 270 269 268 266 266 266
249 249 247 245 245 242 240 243 243 237 234 234 235 234 233 234 237 240 244 247 250 251 250 253 255 255 256 258 260 263 263 262 260 259 258 258 261 262 264 269 271 269 267 266 267 268 268 267 266 263 262 261 262 265 266 267 267 267 268 270 271 273 274 275 275 274 273 270 268 267 265 263 264 265 267 269 270 271 271 271 271 271 270 269 268
246 245 244 242 244 245 242 244 247 247 245 244 242 238 233 231 233 238 242 244 245 245 246 249 251 251 251 253 256 258 260 260 259 260 260 260 261 263 265 269 272 271 267 264 264 266 265 264 263 263 264 264 263 265 268 270 271 271 271 271 272 273 273 274 274 274 274 273 271 270 268 266 264 263 263 264 266 268 270 270 271 271 271 270 270
246 243 242 240 240 241 242 244 247 251 254 254 252 248 242 237 234 235 239 241 242 242 243 244 246 247 247 250 254 256 256 256 257 260 262 261 262 266 269 270 272 272 269 265 262 262 262 261 260 261 264 266 267 270 272 274 277 278 279 278 277 276 275 275 275 275 274 273 272 270 268 268 267 265 263 262 262 263 265 267 268 270 271 271 271
248 243 242 240 238 237 238 240 243 249 254 256 257 255 252 249 244 242 245 248 245 242 240 241 242 244 246 249 253 254 254 257 260 262 262 261 264 270 272 270 269 270 268 266 263 260 258 259 259 261 266 268 269 271 272 274 276 278 279 281 282 281 280 278 278 277 276 275 274 271 268 267 266 266 266 265 264 264 263 264 265 266 268 270 270
250 246 243 242 241 238 236 237 238 242 247 252 256 257 256 254 251 250 253 256 252 246 246 249 249 244 243 248 253 254 256 259 261 261 261 261 265 270 271 268 268 269 268 267 266 263 259 258 259 263 267 268 267 266 267 268 270 271 273 276 279 281 282 282 281 280 279 278 277 276 274 270 268 266 265 264 264 264 265 265 265 266 266 267 269
256 251 247 244 243 242 240 238 238 238 240 244 248 253 256 257 256 254 254 256 255 250 249 256 257 252 250 255 256 253 254 259 260 256 255 260 267 270 269 267 267 267 266 265 268 268 264 262 263 264 265 265 265 265 265 266 268 269 270 271 273 276 278 280 282 282 282 281 279 278 277 276 274 272 269 267 266 264 264 264 265 265 266 266 267
261 256 251 247 246 245 244 243 242 241 241 242 243 245 249 253 256 258 258 258 257 254 253 255 258 258 259 260 258 254 254 259 260 255 254 260 266 265 262 261 261 262 263 263 266 270 271 269 266 266 266 266 267 267 267 269 271 272 273 272 272 274 275 276 278 280 281 280 279 278 277 277 276 275 274 273 271 269 267 265 265 265 265 265 265
262 256 252 250 248 247 246 246 247 246 246 246 246 245 245 247 250 254 257 259 259 258 258 258 258 258 258 257 257 257 259 262 263 263 263 264 264 260 257 257 256 258 260 262 264 268 273 274 270 267 268 269 270 270 269 270 272 274 275 275 275 275 275 276 277 278 278 278 277 276 275 275 275 275 275 274 274 273 272 270 269 268 267 267 266
263 257 253 252 252 251 250 249 249 249 250 251 251 251 250 249 249 250 252 255 257 258 259 259 259 258 258 257 256 256 259 260 260 261 262 262 262 259 256 254 253 256 260 262 264 268 271 274 272 270 270 270 270 271 271 271 271 273 275 275 275 276 277 278 279 279 278 278 277 275 274 274 275 274 274 274 274 274 274 274 273 272 271 269 268
261 256 253 253 255 256 255 253 252 252 252 253 254 255 255 254 253 252 251 251 253 254 256 258 259 259 258 257 256 256 257 258 258 257 257 259 261 259 253 250 252 256 261 264 266 269 271 273 274 273 272 271 270 270 271 272 271 273 275 277 277 276 275 277 279 279 278 277 276 275 274 274 275 275 275 275 275 275 275 274 274 274 274 273 271
255 254 256 257 258 259 259 258 256 255 254 254 254 254 254 254 254 253 253 252 252 253 254 255 257 259 259 258 258 258 259 260 260 261 261 262 264 262 258 257 258 261 263 266 268 270 272 273 274 274 273 272 271 270 271 272 272 273 275 277 279 278 277 277 278 278 277 277 276 275 275 274 275 276 276 276 276 276 276 275 273 272 273 273 272
255 258 261 260 261 262 262 261 259 258 256 255 255 255 254 254 254 253 253 252 252 252 253 254 256 258 259 260 260 260 261 262 263 265 266 268 268 267 266 266 266 266 267 268 270 270 272 272 272 273 274 273 273 273 273 273 273 275 275 275 276 278 279 280 280 279 279 279 278 277 276 276 276 277 277 277 277 277 277 276 275 274 273 272 272
258 260 260 260 263 265 265 264 262 261 260 259 257 256 255 255 254 254 254 253 253 253 253 255 256 257 259 260 260 260 261 262 264 266 267 268 268 269 270 271 271 270 269 269 271 271 271 271 272 272 272 272 273 275 274 273 274 275 276 276 276 277 279 281 281 281 282 282 281 280 279 279 278 278 278 278 278 277 277 276 275 275 274 274 273
259 259 259 261 265 268 267 265 263 262 261 260 259 258 257 256 255 255 255 255 255 254 254 254 256 257 258 259 259 259 260 261 262 263 263 264 266 268 270 272 273 272 271 271 271 271 271 272 273 272 272 271 272 273 274 274 274 274 275 276 276 277 279 280 281 281 281 281 281 282 281 281 280 279 278 277 277 276 276 275 275 274 274 273 273
259 260 261 264 267 269 267 265 263 262 260 259 259 259 258 257 257 257 257 256 256 256 255 255 255 256 257 257 258 259 260 260 261 262 262 263 265 267 269 270 271 272 272 272 271 271 271 272 272 272 272 272 273 273 273 273 274 274 274 274 275 276 277 279 280 280 280 279 280 280 281 281 281 280 279 278 276 275 274 274 274 273 273 273 273
260 261 262 264 266 266 265 264 263 262 260 260 259 259 258 258 258 258 257 257 257 257 256 256 256 256 256 257 258 259 260 260 260 261 262 263 264 265 267 268 269 270 272 272 272 272 272 271 272 272 273 274 275 275 274 274 274 274 275 275 275 275 275 276 278 279 279 279 279 279 280 280 280 279 279 278 277 275 274 273 272 272 272 272 273
260 261 262 263 264 263 264 264 263 263 262 261 261 260 259 258 258 258 258 258 257 257 257 256 256 257 257 257 258 259 260 261 261 262 263 264 264 265 265 266 268 269 270 271 272 272 272 272 272 273 275 276 276 275 275 275 275 275 276 276 277 276 276 277 278 279 279 278 278 279 279 279 278 278 278 277 276 275 274 274 273 272 272 271 272
258 260 261 262 262 263 263 263 262 262 262 262 261 261 260 260 259 259 259 259 258 258 258 257 257 257 257 257 258 258 259 259 260 262 263 264 265 265 266 267 267 268 269 269 270 270 271 272 273 274 276 277 276 275 276 276 276 276 276 276 276 276 277 278 278 279 278 278 278 278 278 277 277 277 277 277 276 275 275 275 274 273 273 272 271
257 259 261 261 262 263 263 263 262 262 262 262 262 261 261 261 260 260 259 259 259 259 259 260 260 259 259 259 258 258 258 258 259 260 261 263 264 265 266 267 267 268 268 268 269 269 269 270 273 274 275 275 274 274 275 275 275 275 274 275 275 275 276 277 277 277 277 277 277 277 277 277 277 277 277 276 276 276 275 275 275 274 273 273 272
259 260 262 263 263 263 264 264 263 263 262 262 262 262 262 261 261 260 260 260 260 260 260 261 261 261 261 261 261 260 260 260 259 260 260 261 262 263 264 265 265 266 267 267 268 268 268 269 271 272 271 271 272 273 273 273 273 273 273 273 273 274 275 276 276 276 276 277 277 278 277 277 277 277 277 277 277 277 276 276 275 275 274 273 273
259 261 263 264 264 263 263 264 264 263 263 263 262 263 263 262 261 261 260 260 260 260 261 261 261 261 261 262 262 262 261 261 260 260 260 260 261 262 263 263 264 264 265 266 267 267 268 269 269 269 268 269 270 271 272 272 272 272 271 271 272 272 273 274 274 275 276 276 277 278 278 278 279 279 279 279 278 278 277 276 276 276 276 275 274
258 260 262 263 262 262 263 263 263 263 263 263 263 263 262 262 262 261 261 260 260 260 260 260 260 260 260 261 261 261 261 261 260 260 260 260 260 260 261 262 262 263 264 265 266 267 268 268 268 268 269 270 270 271 271 270 270 270 270 271 271 271 271 272 273 275 276 276 277 278 279 280 280 280 280 280 280 279 278 277 276 276 276 276 275
258 259 260 261 261 262 262 262 262 262 262 262 262 262 262 262 262 261 261 261 261 260 260 260 260 260 260 259 259 260 260 260 260 260 260 260 260 260 260 261 262 262 263 264 265 266 267 268 269 269 270 270 270 269 269 269 268 269 269 269 270 271 272 273 274 274 275 276 277 278 279 280 280 281 280 280 280 280 280 279 278 277 277 276 275
258 259 259 260 260 261 260 260 261 261 261 261 261 261 261 261 261 261 261 262 262 261 261 261 261 260 260 260 259 259 259 259 259 259 259 259 260 260 260 261 262 262 262 263 263 265 266 267 268 269 269 269 269 268 268 269 270 270 270 270 271 272 273 273 274 274 275 276 277 278 279 280 280 281 281 281 282 283 283 282 281 279 277 276 275
259 259 259 259 260 259 260 260 260 260 260 260 260 260 261 261 261 262 262 262 262 262 262 262 261 261 261 262 261 260 260 260 259 259 259 259 259 259 260 261 261 261 262 262 263 264 265 267 267 267 268 268 268 268 268 269 270 270 270 270 271 271 271 272 274 275 275 275 276 276 277 278 280 282 283 284 284 284 283 282 281 279 277 275 274
260 260 260 261 260 260 260 260 260 260 260 260 260 260 260 261 262 262 262 263 263 262 262 261 261 261 261 262 262 261 261 261 260 259 259 259 260 260 261 261 260 261 261 261 262 263 264 265 265 265 266 267 267 266 266 267 268 267 266 266 267 269 271 273 273 273 273 273 274 275 277 279 282 283 283 284 284 284 283 282 281 280 279 277 275
260 261 261 261 261 261 261 261 260 259 259 260 260 260 261 261 261 262 262 263 263 263 263 263 263 262 262 263 263 262 262 261 260 260 260 260 261 261 261 261 261 261 261 262 263 264 264 264 264 265 265 265 265 264 265 266 265 261 259 262 266 271 273 273 272 271 272 273 275 276 278 280 281 282 283 284 284 284 283 282 281 280 279 277 276
260 261 261 261 262 262 262 261 261 261 260 260 260 260 261 261 261 261 262 262 262 263 263 264 264 264 264 264 264 264 263 263 262 261 261 261 262 261 261 262 262 262 262 264 264 265 265 266 266 266 266 265 264 263 262 261 260 256 256 261 267 270 271 271 270 271 273 275 276 277 279 281 283 284 285 285 284 284 283 282 281 280 279 278 277
261 261 261 260 260 260 260 260 260 261 261 261 261 261 261 262 261 262 262 262 262 263 264 264 264 264 264 264 264 264 264 264 264 263 263 263 263 263 262 262 263 263 264 265 266 266 267 267 267 266 265 264 262 257 253 254 256 255 256 261 265 265 266 268 270 272 274 276 278 280 282 284 285 285 285 285 284 284 284 284 283 282 281 280 279
263 262 262 262 261 261 261 261 261 261 261 262 262 262 262 262 262 262 262 262 262 263 263 264 265 265 265 265 265 265 265 266 265 265 265 265 265 264 263 263 263 264 265 265 265 265 265 265 264 263 260 257 252 246 245 251 255 255 255 258 261 262 265 269 272 275 278 281 283 285 286 286 286 286 286 286 286 287 287 286 286 285 283 282 280
263 263 263 263 263 263 262 262 262 262 262 262 262 262 262 262 262 262 261 261 261 262 262 263 264 264 264 265 265 266 266 266 266 266 266 265 263 263 263 262 262 262 261 260 259 257 257 257 255 249 245 244 244 244 247 252 254 255 256 259 263 267 270 274 277 281 284 286 287 288 287 287 288 288 290 291 292 292 292 291 290 288 286 284 282
Height
5758 5759 5760 5760 5759 5757 5759 5761 5762 5762 5763 5763 5762 5762 5762 5763 5763 5764 5766 5766 5766 5767 5767 5767 5766 5766 5766 5766 5766 5767 5767 5768 5769 5770 5770 5771 5771 5772 5772 5772 5772 5772 5773 5773 5773 5774 5774 5774 5775 5776 5776 5775 5775 5777 5778 5778 5778 5778 5778 5779 5779 5780 5779 5779 5779 5779 5780 5780 5780 5781 5781 5782 5782 5783 5784 5785 5786 5788 5789 5791 5793 5794 5795 5797 5799
5755 5756 5757 5757 5756 5756 5758 5760 5760 5760 5760 5761 5761 5761 5761 5761 5761 5762 5763 5763 5763 5764 5764 5764 5765 5764 5763 5763 5764 5764 5764 5765 5766 5767 5767 5768 5768 5769 5769 5770 5770 5770 5770 5770 5771 5771 5772 5772 5773 5773 5774 5773 5772 5774 5775 5775 5775 5775 5775 5776 5777 5777 5776 5776 5776 5776 5777 5778 5778 5778 5778 5779 5779 5780 5780 5781 5782 5784 5785 5787 5789 5790 5792 5794 5796
5752 5753 5753 5753 5753 5755 5758 5758 5759 5758 5758 5758 5759 5758 5759 5758 5758 5759 5760 5761 5760 5760 5761 5761 5762 5762 5761 5761 5761 5761 5762 5762 5763 5764 5764 5765 5765 5766 5766 5767 5767 5768 5768 5768 5768 5768 5768 5769 5770 5770 5771 5771 5771 5771 5772 5772 5772 5772 5772 5773 5774 5774 5774 5773 5773 5773 5774 5775 5775 5775 5775 5775 5776 5776 5776 5777 5778 5780 5782 5784 5784 5785 5787 5790 5792
5752 5752 5751 5751 5753 5754 5755 5756 5756 5756 5756 5756 5756 5756 5756 5755 5755 5756 5757 5758 5758 5758 5758 5758 5759 5760 5759 5759 5759 5759 5759 5760 5760 5761 5761 5762 5762 5763 5763 5764 5764 5765 5765 5765 5766 5766 5766 5766 5767 5768 5768 5768 5768 5769 5769 5770 5769 5769 5770 5770 5771 5772 5772 5770 5770 5770 5771 5772 5772 5772 5772 5773 5773 5773 5773 5773 5775 5777 5778 5779 5779 5781 5784 5786 5788
5750 5751 5751 5752 5752 5753 5752 5753 5753 5754 5754 5754 5753 5753 5753 5753 5752 5753 5754 5755 5755 5755 5755 5755 5756 5757 5757 5757 5756 5756 5757 5757 5758 5758 5758 5759 5759 5760 5760 5761 5761 5762 5762 5763 5763 5763 5763 5763 5764 5764 5765 5765 5765 5766 5766 5767 5767 5767 5767 5767 5768 5769 5768 5767 5766 5767 5768 5768 5769 5769 5770 5770 5770 5770 5770 5770 5771 5773 5774 5775 5776 5778 5781 5782 5784
5748 5748 5750 5750 5750 5750 5750 5750 5751 5752 5752 5751 5751 5751 5750 5750 5750 5750 5751 5752 5752 5753 5753 5753 5753 5754 5754 5754 5754 5754 5754 5755 5755 5755 5756 5756 5756 5757 5757 5758 5758 5759 5759 5760 5760 5760 5760 5761 5761 5761 5761 5762 5762 5762 5763 5763 5764 5764 5764 5764 5765 5765 5765 5764 5764 5765 5765 5766 5766 5766 5767 5767 5767 5767 5767 5767 5768 5769 5771 5772 5773 5775 5777 5777 5780
5745 5745 5747 5748 5748 5749 5749 5749 5749 5749 5749 5749 5749 5748 5748 5748 5748 5747 5748 5749 5750 5750 5750 5750 5751 5751 5751 5751 5751 5751 5752 5752 5752 5753 5753 5753 5754 5754 5754 5755 5755 5756 5756 5757 5757 5757 5757 5758 5758 5758 5758 5759 5759 5759 5759 5760 5760 5760 5761 5761 5761 5761 5761 5761 5762 5762 5762 5762 5763 5764 5764 5764 5764 5765 5765 5765 5765 5766 5767 5768 5769 5771 5772 5774 5776
5743 5743 5744 5745 5747 5747 5747 5747 5748 5748 5747 5746 5746 5746 5746 5745 5745 5744 5745 5746 5747 5748 5747 5747 5748 5748 5748 5749 5749 5749 5749 5750 5750 5750 5751 5751 5751 5751 5751 5752 5752 5753 5754 5754 5754 5754 5754 5754 5755 5755 5755 5755 5755 5756 5756 5756 5756 5757 5757 5757 5758 5758 5758 5758 5759 5760 5759 5760 5760 5761 5761 5761 5762 5763 5763 5762 5762 5763 5765 5766 5767 5768 5768 5770 5772
5741 5742 5742 5743 5744 5745 5745 5745 5745 5746 5745 5745 5744 5744 5743 5743 5743 5742 5742 5744 5745 5745 5745 5745 5745 5745 5746 5746 5746 5747 5747 5747 5747 5748 5748 5748 5749 5749 5749 5749 5750 5750 5751 5751 5751 5752 5752 5752 5752 5752 5752 5752 5752 5752 5753 5753 5753 5753 5754 5754 5754 5755 5755 5755 5756 5757 5757 5758 5758 5758 5759 5759 5759 5760 5760 5760 5760 5761 5763 5763 5764 5765 5766 5766 5768
5739 5739 5739 5740 5741 5742 5742 5742 5743 5743 5743 5743 5743 5742 5740 5740 5742 5741 5740 5741 5742 5742 5742 5742 5742 5742 5743 5743 5744 5744 5745 5745 5745 5745 5746 5746 5746 5747 5747 5747 5747 5748 5748 5748 5749 5749 5749 5749 5749 5749 5749 5749 5749 5750 5750 5750 5750 5750 5751 5751 5751 5752 5752 5753 5753 5754 5754 5755 5756 5756 5756 5756 5757 5757 5758 5758 5758 5759 5761 5761 5762 5762 5763 5763 5764
5735 5736 5736 5737 5738 5738 5739 5739 5740 5740 5741 5741 5741 5740 5738 5738 5739 5739 5738 5739 5740 5740 5740 5740 5740 5740 5740 5741 5741 5742 5742 5743 5743 5743 5744 5744 5744 5745 5745 5745 5746 5746 5746 5746 5746 5746 5747 5747 5747 5747 5747 5747 5747 5747 5747 5748 5748 5747 5748 5748 5748 5749 5749 5750 5750 5751 5751 5752 5752 5753 5753 5753 5754 5755 5755 5755 5755 5757 5758 5759 5759 5760 5760 5760 5761
5732 5733 5733 5734 5735 5735 5735 5736 5736 5737 5738 5738 5738 5738 5737 5736 5736 5736 5736 5737 5737 5738 5738 5738 5738 5738 5738 5738 5739 5740 5740 5740 5741 5741 5742 5742 5742 5742 5743 5743 5743 5743 5744 5744 5744 5744 5744 5744 5744 5744 5744 5744 5744 5745 5745 5745 5745 5745 5745 5746 5746 5746 5747 5747 5748 5748 5748 5748 5749 5750 5750 5750 5750 5751 5752 5752 5753 5754 5755 5756 5757 5757 5757 5757 5758
5728 5729 5730 5731 5731 5732 5732 5732 5732 5733 5734 5734 5734 5735 5734 5733 5733 5733 5734 5735 5735 5735 5736 5736 5736 5736 5736 5737 5737 5737 5738 5738 5739 5739 5740 5740 5740 5740 5740 5741 5741 5741 5741 5741 5742 5742 5742 5742 5742 5742 5742 5742 5742 5742 5742 5743 5743 5743 5743 5744 5744 5744 5744 5745 5745 5745 5746 5746 5746 5747 5747 5748 5748 5749 5749 5750 5750 5751 5752 5753 5754 5755 5755 5755 5755
5724 5724 5725 5726 5727 5727 5728 5728 5728 5728 5730 5730 5730 5731 5730 5730 5731 5730 5732 5733 5733 5733 5733 5734 5734 5735 5735 5735 5735 5735 5735 5736 5736 5737 5737 5738 5738 5738 5738 5738 5738 5739 5739 5739 5739 5739 5740 5740 5740 5740 5739 5739 5739 5739 5740 5740 5740 5741 5741 5742 5742 5742 5742 5742 5743 5743 5743 5743 5744 5744 5745 5745 5746 5747 5747 5747 5748 5748 5749 5750 5751 5752 5753 5753 5753
5720 5720 5721 5721 5722 5723 5724 5724 5724 5724 5725 5725 5726 5726 5727 5728 5728 5728 5729 5730 5730 5731 5731 5732 5733 5733 5733 5733 5733 5733 5733 5733 5734 5734 5735 5735 5735 5735 5736 5736 5736 5736 5736 5737 5737 5737 5737 5737 5738 5738 5738 5738 5737 5737 5737 5737 5738 5738 5739 5739 5740 5740 5740 5741 5741 5741 5741 5741 5742 5742 5743 5743 5744 5744 5745 5745 5745 5746 5747 5747 5748 5749 5749 5750 5750
5716 5717 5717 5718 5719 5720 5720 5720 5721 5721 5721 5722 5722 5723 5724 5725 5726 5725 5726 5727 5727 5728 5729 5729 5730 5731 5731 5731 5731 5731 5731 5731 5731 5732 5732 5732 5733 5733 5733 5734 5734 5734 5734 5734 5734 5734 5735 5735 5735 5736 5736 5736 5736 5736 5736 5735 5736 5736 5736 5737 5738 5738 5739 5739 5739 5739 5740 5740 5740 5740 5741 5741 5742 5742 5743 5743 5743 5744 5745 5745 5745 5746 5746 5747 5747
5714 5714 5714 5715 5716 5717 5717 5718 5718 5718 5718 5719 5719 5720 5721 5723 5723 5723 5723 5724 5725 5725 5726 5726 5727 5728 5728 5728 5728 5729 5729 5729 5729 5730 5730 5730 5731 5731 5731 5731 5731 5732 5732 5732 5732 5732 5733 5733 5733 5734 5734 5734 5734 5734 5734 5734 5734 5734 5734 5735 5735 5736 5737 5737 5737 5738 5738 5738 5739 5739 5739 5739 5740 5740 5741 5741 5742 5742 5742 5743 5743 5744 5744 5744 5745
5711 5711 5711 5712 5713 5714 5714 5715 5715 5716 5716 5717 5717 5718 5719 5720 5720 5720 5720 5721 5722 5722 5722 5724 5724 5725 5725 5726 5726 5726 5726 5727 5727 5727 5728 5728 5728 5728 5729 5729 5729 5730 5730 5730 5730 5730 5730 5731 5731 5732 5732 5732 5732 5732 5732 5732 5732 5733 5733 5733 5733 5734 5734 5735 5736 5736 5736 5737 5737 5737 5738 5738 5738 5738 5739 5739 5740 5740 5741 5741 5742 5742 5742 5742 5743
5708 5709 5709 5709 5710 5710 5711 5711 5712 5713 5713 5714 5715 5716 5716 5717 5717 5718 5718 5718 5719 5719 5720 5721 5721 5722 5722 5722 5723 5723 5724 5724 5724 5725 5725 5725 5726 5726 5726 5727 5727 5728 5728 5728 5728 5728 5728 5729 5729 5730 5730 5730 5730 5730 5730 5731 5731 5731 5731 5731 5732 5732 5733 5733 5734 5734 5735 5735 5735 5736 5736 5736 5737 5737 5737 5737 5738 5738 5739 5739 5740 5740 5741 5741 5741
5705 5706 5706 5706 5706 5707 5708 5708 5709 5709 5710 5710 5711 5712 5712 5713 5714 5714 5715 5715 5715 5716 5718 5718 5718 5719 5719 5719 5719 5720 5721 5721 5721 5722 5722 5722 5722 5723 5724 5725 5725 5725 5726 5726 5727 5727 5727 5727 5727 5727 5728 5728 5728 5728 5728 5729 5729 5729 5729 5729 5730 5730 5730 5731 5732 5732 5733 5733 5734 5734 5734 5735 5735 5735 5735 5736 5736 5736 5737 5737 5738 5738 5738 5739 5739
5702 5703 5703 5703 5703 5704 5705 5705 5705 5705 5706 5706 5706 5707 5708 5709 5710 5710 5711 5711 5712 5713 5714 5714 5715 5715 5715 5716 5716 5717 5718 5718 5718 5719 5719 5719 5719 5720 5721 5722 5723 5724 5724 5724 5724 5725 5725 5725 5725 5725 5725 5726 5726 5726 5726 5726 5726 5727 5727 5727 5727 5727 5728 5728 5729 5729 5730 5731 5731 5732 5732 5732 5732 5733 5733 5733 5734 5734 5734 5735 5735 5735 5736 5736 5736
5699 5699 5700 5700 5700 5701 5701 5701 5702 5702 5702 5703 5702 5703 5703 5704 5705 5706 5707 5707 5708 5709 5709 5710 5710 5711 5711 5712 5713 5713 5714 5714 5715 5716 5716 5715 5715 5716 5717 5719 5720 5721 5721 5721 5721 5722 5722 5723 5723 5723 5723 5723 5724 5724 5724 5724 5724 5724 5725 5725 5725 5725 5725 5725 5726 5726 5726 5727 5727 5728 5728 5729 5729 5730 5730 5730 5731 5731 5731 5732 5732 5732 5732 5733 5733
5696 5697 5697 5697 5698 5698 5698 5698 5698 5698 5698 5699 5699 5700 5700 5700 5701 5701 5702 5703 5703 5704 5705 5705 5706 5706 5707 5709 5709 5709 5710 5710 5711 5712 5713 5712 5712 5712 5714 5715 5716 5717 5718 5718 5718 5718 5718 5719 5720 5720 5720 5721 5721 5722 5722 5722 5722 5722 5722 5722 5722 5722 5722 5722 5722 5723 5723 5723 5724 5724 5724 5724 5725 5725 5726 5726 5727 5727 5727 5728 5729 5729 5729 5729 5730
5693 5693 5694 5694 5694 5694 5695 5695 5695 5695 5695 5695 5695 5696 5697 5698 5698 5698 5699 5699 5699 5700 5700 5700 5701 5702 5703 5704 5705 5706 5706 5707 5707 5707 5708 5709 5708 5708 5709 5710 5711 5712 5713 5713 5714 5715 5715 5715 5717 5718 5718 5718 5719 5719 5719 5719 5719 5719 5718 5718 5718 5718 5718 5718 5719 5719 5719 5720 5720 5720 5720 5721 5721 5721 5721 5722 5722 5723 5723 5723 5724 5725 5725 5725 5725
5689 5689 5690 5690 5691 5691 5691 5691 5691 5692 5692 5692 5692 5692 5693 5694 5695 5695 5696 5695 5696 5696 5696 5696 5697 5698 5699 5700 5701 5702 5702 5703 5704 5704 5704 5704 5704 5704 5705 5706 5706 5707 5708 5709 5709 5710 5711 5712 5713 5714 5715 5715 5715 5715 5715 5715 5715 5715 5715 5715 5715 5714 5714 5714 5714 5715 5715 5716 5716 5716 5716 5717 5717 5717 5717 5718 5718 5718 5719 5719 5719 5720 5720 5721 5721
5683 5684 5685 5685 5686 5686 5687 5687 5687 5688 5688 5688 5689 5689 5689 5690 5690 5691 5691 5691 5692 5693 5693 5693 5694 5694 5695 5696 5697 5698 5699 5700 5700 5701 5701 5700 5700 5700 5701 5701 5702 5702 5703 5704 5705 5706 5707 5709 5710 5710 5711 5711 5711 5711 5711 5711 5711 5711 5711 5711 5712 5712 5711 5711 5710 5711 5711 5711 5711 5712 5712 5712 5712 5713 5713 5713 5714 5714 5714 5715 5715 5715 5716 5716 5717
5676 5677 5678 5679 5680 5681 5681 5682 5682 5683 5684 5684 5685 5685 5685 5685 5685 5685 5686 5687 5687 5688 5688 5689 5690 5691 5691 5692 5693 5694 5695 5695 5696 5697 5697 5697 5696 5697 5696 5696 5698 5698 5698 5699 5701 5701 5703 5704 5705 5705 5706 5707 5707 5707 5708 5708 5708 5707 5707 5708 5708 5708 5708 5708 5708 5707 5707 5707 5707 5707 5707 5707 5708 5708 5708 5709 5709 5710 5710 5710 5710 5711 5711 5712 5712
5669 5670 5671 5673 5674 5675 5675 5676 5677 5677 5678 5679 5679 5680 5681 5681 5681 5681 5681 5681 5682 5683 5683 5683 5685 5685 5686 5687 5688 5689 5690 5690 5691 5691 5692 5692 5692 5693 5692 5692 5693 5694 5694 5695 5696 5697 5698 5699 5699 5699 5701 5702 5703 5704 5704 5704 5704 5703 5703 5703 5704 5704 5704 5704 5704 5704 5704 5703 5703 5703 5703 5703 5703 5703 5703 5704 5704 5704 5705 5705 5706 5706 5706 5707 5707
5662 5662 5664 5666 5667 5669 5669 5670 5671 5671 5672 5672 5673 5674 5675 5675 5676 5677 5677 5677 5677 5677 5678 5678 5679 5680 5680 5682 5683 5684 5684 5685 5686 5686 5686 5687 5687 5688 5688 5688 5689 5689 5689 5689 5690 5692 5694 5694 5693 5694 5696 5697 5699 5699 5699 5699 5699 5698 5698 5698 5699 5699 5699 5699 5700 5700 5700 5700 5699 5699 5699 5698 5698 5698 5698 5699 5699 5699 5700 5700 5701 5701 5701 5702 5702
5656 5656 5657 5659 5661 5662 5663 5664 5665 5665 5666 5666 5667 5667 5668 5669 5670 5671 5671 5672 5672 5673 5673 5673 5674 5674 5675 5676 5677 5678 5679 5679 5680 5680 5681 5682 5682 5683 5683 5684 5684 5684 5684 5684 5685 5687 5688 5688 5687 5688 5690 5692 5693 5694 5694 5694 5694 5693 5693 5694 5694 5693 5693 5693 5694 5695 5695 5695 5695 5694 5694 5694 5694 5693 5693 5693 5694 5694 5695 5695 5695 5696 5696 5696 5697
5652 5651 5651 5653 5654 5655 5656 5657 5658 5658 5659 5660 5660 5661 5662 5663 5663 5664 5665 5666 5667 5667 5668 5668 5668 5669 5670 5671 5672 5673 5673 5674 5674 5674 5675 5676 5677 5677 5678 5678 5679 5680 5679 5679 5679 5681 5681 5681 5681 5683 5684 5685 5687 5689 5689 5689 5688 5688 5688 5689 5689 5688 5688 5688 5688 5688 5689 5690 5689 5689 5689 5690 5690 5689 5688 5688 5688 5688 5689 5690 5690 5690 5690 5690 5691
5646 5646 5646 5646 5647 5648 5650 5651 5651 5652 5653 5653 5654 5655 5655 5656 5657 5658 5659 5660 5660 5661 5662 5662 5663 5664 5664 5665 5666 5667 5668 5668 5668 5668 5669 5669 5670 5670 5670 5671 5673 5674 5675 5675 5674 5675 5675 5675 5676 5677 5677 5677 5680 5682 5683 5683 5683 5683 5683 5683 5683 5683 5683 5682 5682 5682 5683 5683 5683 5684 5684 5684 5684 5684 5683 5683 5683 5683 5683 5683 5684 5684 5684 5684 5684
5639 5640 5641 5640 5640 5642 5643 5644 5644 5645 5646 5647 5647 5648 5649 5650 5650 5651 5652 5653 5654 5655 5655 5656 5657 5657 5658 5659 5660 5661 5662 5662 5663 5663 5663 5664 5663 5663 5663 5664 5665 5666 5669 5670 5669 5670 5669 5669 5670 5671 5671 5672 5675 5676 5675 5676 5677 5677 5678 5678 5677 5678 5678 5677 5677 5677 5677 5677 5677 5677 5677 5677 5678 5678 5678 5677 5677 5677 5677 5677 5677 5677 5677 5677 5677
5632 5633 5633 5633 5634 5635 5637 5638 5638 5638 5639 5639 5640 5641 5642 5642 5643 5644 5645 5646 5647 5648 5649 5649 5650 5651 5652 5652 5653 5654 5655 5656 5657 5657 5657 5657 5657 5657 5657 5658 5658 5659 5661 5663 5663 5664 5663 5663 5664 5664 5664 5666 5670 5669 5668 5669 5670 5671 5672 5672 5671 5672 5673 5671 5671 5671 5671 5671 5670 5670 5671 5671 5670 5671 5671 5671 5671 5671 5670 5670 5670 5670 5671 5671 5671
5625 5626 5626 5626 5628 5629 5630 5631 5631 5631 5632 5632 5632 5634 5635 5635 5636 5637 5638 5639 5640 5641 5641 5642 5643 5644 5645 5645 5646 5647 5648 5649 5650 5650 5651 5651 5651 5651 5651 5652 5652 5652 5654 5655 5656 5657 5657 5657 5657 5656 5656 5660 5663 5662 5662 5663 5664 5665 5666 5665 5665 5666 5666 5665 5664 5664 5665 5664 5664 5664 5664 5664 5663 5663 5664 5665 5665 5664 5663 5663 5663 5663 5663 5664 5664
5618 5619 5619 5620 5621 5621 5621 5622 5623 5624 5624 5625 5626 5627 5628 5628 5629 5630 5631 5632 5633 5634 5634 5635 5636 5637 5638 5639 5639 5640 5641 5642 5642 5643 5643 5643 5644 5645 5645 5645 5646 5646 5647 5648 5648 5648 5649 5649 5650 5649 5649 5654 5656 5654 5655 5657 5657 5658 5659 5658 5658 5659 5658 5658 5658 5658 5658 5658 5657 5658 5657 5657 5656 5656 5656 5657 5658 5657 5656 5656 5656 5656 5656 5657 5657
5611 5611 5611 5612 5613 5613 5614 5615 5615 5616 5617 5617 5619 5620 5621 5621 5622 5623 5624 5625 5625 5626 5627 5628 5629 5630 5631 5632 5633 5633 5634 5635 5635 5635 5636 5636 5636 5637 5638 5639 5639 5640 5640 5641 5640 5640 5639 5640 5642 5641 5643 5647 5648 5646 5647 5649 5650 5651 5651 5650 5650 5650 5650 5651 5651 5651 5651 5650 5650 5650 5650 5649 5649 5648 5649 5650 5650 5649 5648 5648 5648 5649 5649 5650 5649
5603 5603 5604 5605 5605 5605 5606 5607 5608 5608 5609 5609 5611 5612 5613 5614 5614 5616 5617 5617 5618 5619 5619 5620 5622 5623 5625 5625 5626 5627 5627 5628 5628 5628 5628 5629 5629 5630 5630 5631 5632 5632 5633 5633 5633 5633 5632 5632 5634 5634 5636 5640 5640 5638 5640 5642 5642 5644 5644 5643 5643 5642 5642 5643 5643 5643 5643 5642 5642 5643 5642 5642 5642 5641 5641 5642 5642 5641 5640 5640 5641 5641 5641 5642 5641
5595 5596 5596 5597 5598 5599 5599 5599 5600 5601 5601 5602 5603 5604 5605 5606 5607 5608 5609 5610 5611 5612 5612 5613 5614 5616 5617 5618 5619 5619 5620 5620 5621 5621 5621 5622 5622 5622 5623 5624 5625 5625 5625 5625 5626 5626 5625 5626 5628 5628 5630 5632 5632 5632 5634 5635 5635 5637 5636 5636 5635 5634 5635 5636 5636 5636 5636 5635 5635 5634 5634 5635 5635 5634 5633 5633 5633 5633 5632 5632 5632 5632 5632 5633 5632
5588 5589 5589 5590 5592 5592 5592 5592 5593 5593 5594 5594 5595 5595 5597 5598 5599 5600 5601 5602 5603 5604 5605 5605 5606 5608 5609 5610 5610 5611 5612 5613 5614 5614 5615 5615 5615 5615 5616 5617 5617 5618 5618 5618 5619 5619 5618 5620 5623 5623 5623 5625 5626 5626 5627 5628 5628 5629 5629 5628 5628 5627 5628 5628 5628 5628 5628 5627 5627 5625 5626 5628 5627 5626 5625 5625 5624 5625 5624 5623 5623 5623 5623 5623 5623
5581 5581 5582 5584 5585 5584 5585 5586 5586 5586 5586 5587 5587 5588 5589 5590 5590 5592 5593 5594 5595 5596 5597 5598 5599 5600 5601 5602 5602 5603 5604 5605 5606 5607 5608 5608 5608 5608 5609 5609 5610 5611 5611 5612 5612 5611 5612 5615 5616 5616 5616 5619 5620 5620 5621 5621 5621 5621 5621 5621 5621 5621 5621 5621 5621 5621 5620 5619 5619 5617 5617 5619 5619 5617 5617 5617 5617 5617 5616 5615 5615 5614 5613 5613 5613
5575 5575 5575 5577 5577 5577 5578 5579 5579 5579 5579 5579 5579 5580 5581 5582 5583 5584 5585 5586 5588 5589 5589 5590 5591 5592 5593 5594 5595 5596 5596 5598 5599 5600 5600 5601 5601 5602 5602 5603 5604 5604 5605 5606 5605 5604 5606 5608 5609 5609 5610 5613 5615 5614 5614 5615 5615 5614 5614 5614 5614 5615 5614 5614 5614 5614 5613 5612 5611 5609 5609 5611 5611 5609 5609 5609 5609 5608 5608 5607 5606 5605 5604 5604 5603
5567 5568 5568 5569 5570 5571 5571 5571 5571 5572 5571 5571 5572 5573 5573 5574 5575 5576 5577 5579 5580 5581 5582 5583 5584 5585 5586 5587 5588 5589 5589 5590 5592 5593 5593 5593 5594 5595 5595 5596 5597 5598 5599 5599 5598 5598 5600 5602 5602 5602 5604 5606 5608 5607 5607 5608 5608 5608 5608 5608 5608 5608 5608 5607 5607 5607 5606 5605 5605 5603 5602 5603 5602 5601 5601 5601 5600 5599 5599 5598 5598 5597 5596 5595 5594
5560 5560 5561 5561 5562 5564 5564 5564 5564 5564 5564 5564 5565 5565 5566 5567 5568 5569 5570 5571 5572 5573 5575 5576 5577 5578 5579 5580 5581 5582 5582 5584 5585 5585 5586 5586 5586 5588 5589 5590 5590 5591 5592 5592 5591 5591 5594 5595 5596 5596 5597 5599 5600 5600 5600 5601 5602 5602 5602 5602 5602 5602 5601 5601 5601 5600 5600 5599 5598 5597 5596 5595 5595 5594 5593 5593 5592 5591 5590 5589 5588 5587 5586 5585 5584
5552 5553 5553 5553 5555 5555 5555 5556 5557 5556 5557 5557 5557 5558 5559 5560 5561 5562 5563 5564 5565 5566 5567 5568 5569 5571 5572 5573 5574 5575 5575 5576 5577 5578 5579 5579 5579 5581 5582 5583 5583 5584 5585 5585 5584 5586 5588 5589 5589 5589 5590 5592 5593 5593 5594 5595 5595 5595 5595 5596 5596 5596 5595 5595 5595 5594 5593 5593 5592 5591 5590 5589 5588 5587 5586 5585 5584 5582 5581 5580 5579 5577 5576 5575 5574
5545 5545 5545 5545 5547 5547 5547 5548 5549 5549 5549 5549 5550 5551 5551 5552 5553 5554 5555 5556 5557 5558 5560 5561 5562 5564 5565 5566 5567 5568 5568 5569 5569 5571 5571 5571 5572 5574 5576 5576 5576 5577 5578 5578 5578 5580 5582 5582 5582 5582 5583 5585 5587 5587 5588 5588 5589 5589 5590 5590 5590 5590 5590 5589 5589 5588 5587 5587 5586 5585 5584 5583 5582 5580 5579 5577 5575 5574 5572 5571 5569 5568 5567 5566 5564
5537 5537 5537 5538 5539 5539 5539 5540 5540 5541 5541 5541 5542 5543 5544 5545 5546 5547 5548 5549 5550 5551 5553 5554 5556 5557 5559 5559 5560 5561 5561 5561 5562 5563 5564 5564 5565 5568 5569 5569 5569 5570 5571 5572 5573 5575 5575 5575 5575 5577 5578 5579 5580 5581 5582 5583 5583 5584 5585 5585 5585 5585 5584 5584 5583 5582 5582 5581 5580 5579 5577 5576 5575 5573 5571 5569 5567 5565 5564 5562 5560 5559 5558 5556 5555
5528 5528 5529 5530 5530 5531 5531 5531 5532 5532 5532 5532 5534 5535 5536 5538 5539 5540 5541 5542 5543 5544 5545 5547 5549 5550 5551 5552 5552 5553 5554 5554 5555 5556 5557 5558 5559 5561 5562 5562 5562 5563 5565 5566 5567 5568 5568 5568 5569 5571 5571 5573 5574 5576 5577 5578 5578 5579 5580 5579 5579 5579 5579 5578 5578 5577 5576 5575 5574 5572 5571 5569 5567 5566 5564 5562 5559 5557 5555 5554 5552 5551 5549 5548 5547
5518 5519 5520 5520 5521 5522 5522 5522 5523 5524 5523 5524 5526 5528 5529 5530 5531 5533 5534 5534 5535 5537 5538 5540 5541 5543 5544 5544 5545 5545 5546 5547 5547 5548 5550 5552 5553 5553 5555 5555 5555 5556 5558 5559 5560 5560 5561 5562 5564 5564 5565 5566 5568 5570 5571 5572 5573 5574 5574 5574 5574 5574 5574 5573 5573 5572 5571 5569 5568 5566 5564 5562 5560 5558 5556 5554 5552 5550 5547 5546 5544 5542 5541 5540 5538
5508 5509 5510 5511 5511 5512 5513 5514 5515 5515 5515 5516 5518 5520 5521 5522 5523 5525 5526 5526 5527 5529 5531 5532 5534 5535 5536 5537 5537 5538 5539 5539 5539 5541 5544 5546 5545 5545 5547 5548 5548 5550 5552 5553 5553 5554 5555 5556 5557 5558 5559 5561 5563 5564 5566 5567 5568 5569 5569 5569 5569 5569 5569 5569 5568 5567 5565 5564 5562 5560 5557 5555 5553 5551 5549 5546 5544 5542 5540 5537 5536 5534 5532 5531 5530
5499 5500 5501 5501 5502 5503 5504 5505 5505 5506 5506 5507 5509 5511 5512 5513 5514 5515 5517 5518 5520 5521 5523 5525 5526 5527 5528 5529 5529 5531 5532 5532 5532 5535 5538 5538 5538 5538 5540 5541 5542 5544 5545 5546 5547 5548 5549 5551 5552 5553 5555 5557 5559 5561 5562 5563 5563 5564 5564 5565 5565 5565 5565 5564 5563 5561 5560 5558 5556 5553 5551 5548 5546 5544 5541 5538 5536 5533 5531 5529 5527 5525 5524 5522 5521